This is the latest recevied weather packets stored in our database for station/object IK6ZNK-3. If no packets are shown the sender has not sent any weather packets the latest 10 day(s).
| Time | Temp. | Humidity | Pressure | Rain* | Wind** | Luminosity | Snow |
|---|---|---|---|---|---|---|---|
| 1777968611 | 16.11° C | 69% | 1007.7 hPa | 0 mm | - | - | - |
| 1777968010 | 16.11° C | 78% | 1007.7 hPa | 0 mm | - | - | - |
| 1777967409 | 16.11° C | 74% | 1007.6 hPa | 0 mm | - | - | - |
| 1777966809 | 16.11° C | 73% | 1007.6 hPa | 0 mm | - | - | - |
| 1777966207 | 17.22° C | 74% | 1007.5 hPa | 0 mm | - | - | - |
| 1777965608 | 17.22° C | 68% | 1007.7 hPa | 0 mm | - | - | - |
| 1777965008 | 16.67° C | 63% | 1007.4 hPa | 0 mm | - | - | - |
| 1777964408 | 16.67° C | 61% | 1007.4 hPa | 0 mm | - | - | - |
| 1777963806 | 17.22° C | 58% | 1007.3 hPa | 0 mm | - | - | - |
| 1777963207 | 16.67° C | 55% | 1007 hPa | 0 mm | - | - | - |
| 1777962607 | 16.67° C | 62% | 1006.9 hPa | 0 mm | - | - | - |
| 1777962006 | 16.67° C | 63% | 1007 hPa | 0 mm | - | - | - |
| 1777961406 | 16.11° C | 56% | 1006.9 hPa | 0 mm | - | - | - |
| 1777960806 | 15.56° C | 57% | 1006.9 hPa | 0 mm | - | - | - |
| 1777960206 | 16.11° C | 57% | 1006.8 hPa | 0 mm | - | - | - |
| 1777959606 | 16.11° C | 56% | 1006.8 hPa | 0 mm | - | - | - |
| 1777959007 | 16.11° C | 54% | 1006.5 hPa | 0 mm | - | - | - |
| 1777958406 | 16.11° C | 55% | 1006.5 hPa | 0 mm | - | - | - |
| 1777957806 | 16.67° C | 46% | 1006.5 hPa | 0 mm | - | - | - |
| 1777957206 | 16.67° C | 44% | 1006.5 hPa | 0 mm | - | - | - |
| 1777956606 | 15.56° C | 47% | 1006.4 hPa | 0 mm | - | - | - |
| 1777956006 | 15.56° C | 58% | 1006.6 hPa | 0 mm | - | - | - |
| 1777955406 | 15° C | 61% | 1006.4 hPa | 0 mm | - | - | - |
| 1777954806 | 15° C | 62% | 1006.6 hPa | 0 mm | - | - | - |
| 1777954206 | 15° C | 63% | 1006.5 hPa | 0 mm | - | - | - |
* Rain latest hour (hover to see other rain measurements)
** Current wind speed in m/s (hover to see current wind gust speed)